Regional Weather Roundup
Issued by NWS State College, PA

Home | Current Version | Previous Version | Text Only | Print | Product List | Glossary Off
Versions: 1 2 3 4 5 6 7 8 9 10 11 12 13 14 15 16 17 18 19 20 21 22 23 24 25 26 27 28 29 30 31 32 33 34 35 36 37 38 39 40 41 42 43 44 45 46 47 48 49 50

000
ASUS41 KCTP 082203
RWRCTP

REGIONAL WEATHER ROUNDUP
NATIONAL WEATHER SERVICE STATE COLLEGE PA
500 PM EST THU DEC 08 2016

Note: "fair" indicates few or no clouds below 12,000 feet with no
significant weather and/or obstructions to visibility.

* = STATION THAT DOES NOT REPORT PRECIPITATION /E.G. RAIN...SNOW...ETC/
    THUNDER OR FOG.

PAZ002>004-007>009-013>016-020>023-029>032-082300-
WESTERN PENNSYLVANIA

CITY           SKY/WX    TMP DP  RH WIND       PRES   REMARKS
ERIE           SNOW      25  22  88 SW18G26   30.07S VSB 1/2 WCI  11
MEADVILLE      FLURRIES  24  15  68 SW16G26   30.06R WCI  11
FRANKLIN*        N/A     23  12  63 W15G23    30.08R WCI  10
NEW CASTLE     FLURRIES  25  18  74 W14       30.15R WCI  13
BEAVER COUNTY  LGT SNOW  25  18  74 W13G18    30.14R WCI  13
BUTLER*        CLOUDY    25  16  68 W7G17     30.15R
PITTSBURGH INT FLURRIES  28  16  60 W16       30.14R
PITTSBURGH     CLOUDY    26  13  57 W13G20    30.14R WCI  15
INDIANA*       CLOUDY    25  18  74 NW8G17    30.14R HAZE
LATROBE        FLURRIES  27  18  69 W12G23    30.15R
WASHINGTON CO* CLOUDY    27  14  59 W10G16    30.17R
$$

PAZ004>006-010>012-017>019-024>028-033>037-041-042-045-046-049>053-082300-
CENTRAL PENNSYLVANIA

CITY           SKY/WX    TMP DP  RH WIND       PRES   REMARKS
BRADFORD       CLOUDY    23  15  71 W14G23    29.96R WCI  11
DUBOIS         CLOUDY    23  12  62 W18G24    30.03R WCI   9
CLEARFIELD     CLOUDY    26  13  57 W9G20     30.06R
JOHNSTOWN      LGT SNOW  22  17  81 W16       30.03R WCI   8
ALTOONA        CLOUDY    28  16  60 NW20G32   30.05R WCI  15
STATE COLLEGE  CLOUDY    28  14  54 W14G22    30.04R
WILLIAMSPORT   MOCLDY    35  14  42 W16G22    30.00R
SELINSGROVE    CLEAR     33  17  51 W12G21    30.03R
FT INDIANTOWN  CLEAR     36  14  41 W14G23    30.01R
CAPITAL CITY   CLEAR     38  14  37 NW16G30   30.04R
HARRISBURG     PTCLDY    37  20  50 NW17G24   30.02R
YORK           CLEAR     36  18  48 W14       30.03R
$$

PAZ038>040-043-044-047-048-054-055-060>062-067>071-082300-
EASTERN PENNSYLVANIA

CITY           SKY/WX    TMP DP  RH WIND       PRES   REMARKS
SCRANTON       CLOUDY    36  17  46 W14       29.93R
MOUNT POCONO   CLOUDY    30  15  53 W15G26    29.86R
ALLENTOWN      CLEAR     38  16  40 W13       29.96R
QUAKERTOWN*    CLEAR     37  18  44 W9G17     29.96R
READING        CLEAR     37  17  44 NW16      29.99R
LANCASTER      CLEAR     37  19  48 NW15      30.01R
COATESVILLE    PTCLDY    37  19  48 NW14      29.99R
POTTSTOWN      CLEAR     37  19  48 W13G22    29.98R
BLUE BELL      PTCLDY    37  21  52 W5        29.96R
DOYLESTOWN     CLEAR     39  20  46 W13       29.94R
WILLOW GROVE   NOT AVBL
NORTH PHILA    CLOUDY    41  19  41 W10       29.99R
PHILADELPHIA   MOCLDY    43  18  36 NW8       29.99R
$$



USA.gov is the U.S. government's official web portal to all federal, state and local government web resources and services.